Weather History for West Palm Beach, FL

Change the Weather History Date:

Sunday, February 17, 2013

  Actual Average Record
Temperature  
Mean Temperature 51 °F 68 °F  
Max Temperature 58 °F 77 °F 87 °F (2001)
Min Temperature 44 °F 59 °F 35 °F (1996)
Degree Days  
Heating Degree Days 14 2  
Month to date heating degree days 27 34  
Since 1 July heating degree days 75 191  
Cooling Degree Days 0 5  
Month to date cooling degree days 74 73  
Year to date cooling degree days 295 181  
Moisture  
Dew Point 25 °F    
Average Humidity 42    
Maximum Humidity 63    
Minimum Humidity 21    
Precipitation  
Precipitation 0.00 in 0.10 in 2.33 in (1930)
Month to date precipitation 1.83 1.64  
Year to date precipitation 2.62 4.77  
Snow  
Snow 0.00 in - - ()
Month to date snowfall 0.0  
Since 1 July snowfall 0.0  
Snow Depth 0.00 in    
Sea Level Pressure  
Sea Level Pressure 30.22 in    
Wind  
Wind Speed 17 mph (NNW)    
Max Wind Speed 25 mph    
Max Gust Speed 31 mph    
Visibility 10 miles    
Events      
T = Trace of Precipitation, MM = Missing Value Source: NWS Daily Summary

Daily Weather History Graph

Daily Weather History Graph

Search for Another Location

Airport:

Trip Planner

Search our weather history database for the weather conditions in past years. The results will help you decide how hot, cold, wet, or windy it might be!

Date:

Astronomy

Feb. 17, 2013 Rise Set
Actual Time 6:54 AM EST 6:14 PM EST
Civil Twilight 6:31 AM EST 6:37 PM EST
Nautical Twilight 6:03 AM EST 7:05 PM EST
Astronomical Twilight 5:36 AM EST 7:32 PM EST
Moon 11:30 AM EST (2/17) 12:26 AM EST (2/17)
Length of Visible Light 12h 06m
Length of Day
11h 19m
Waxing Crescent, 49% of the Moon is Illuminated
Feb 17
Waxing Crescent
Feb 17
First Quarter
Feb 25
Full
Mar 4
Last Quarter
Mar 11
New

Hourly Weather History & Observations

Time (EST) Temp. Windchill Dew Point Humidity Pressure Visibility Wind Dir Wind Speed Gust Speed Precip Events Conditions
12:53 AM 52.0 °F - 39.0 °F 61% 30.09 in 10.0 mi NW 12.7 mph - N/A   Partly Cloudy
1:53 AM 53.1 °F - 37.9 °F 57% 30.09 in 10.0 mi NW 15.0 mph 24.2 mph N/A   Clear
2:53 AM 50.0 °F - 36.0 °F 59% 30.10 in 10.0 mi NNW 16.1 mph 24.2 mph N/A   Clear
3:53 AM 48.9 °F - 33.1 °F 54% 30.11 in 10.0 mi NNW 15.0 mph 25.3 mph N/A   Clear
4:53 AM 46.9 °F - 27.0 °F 46% 30.14 in 10.0 mi NNW 23.0 mph 28.8 mph N/A   Clear
5:53 AM 45.0 °F 37.6 °F 21.9 °F 40% 30.17 in 10.0 mi NNW 17.3 mph - N/A   Clear
6:53 AM 44.1 °F 37.1 °F 19.9 °F 38% 30.19 in 10.0 mi NNW 15.0 mph 23.0 mph N/A   Scattered Clouds
7:53 AM 45.0 °F 38.2 °F 19.0 °F 36% 30.22 in 10.0 mi NNW 15.0 mph 21.9 mph N/A   Scattered Clouds
8:53 AM 48.0 °F - 17.1 °F 29% 30.25 in 10.0 mi NNW 19.6 mph 27.6 mph N/A   Partly Cloudy
9:53 AM 51.1 °F - 14.0 °F 23% 30.27 in 10.0 mi NNW 25.3 mph 31.1 mph N/A   Partly Cloudy
10:53 AM 53.1 °F - 16.0 °F 23% 30.28 in 10.0 mi NNW 19.6 mph 28.8 mph N/A   Partly Cloudy
11:53 AM 54.0 °F - 17.1 °F 23% 30.27 in 10.0 mi NNW 13.8 mph 25.3 mph N/A   Partly Cloudy
12:53 PM 55.9 °F - 17.1 °F 22% 30.26 in 10.0 mi NW 17.3 mph 23.0 mph N/A   Partly Cloudy
1:53 PM 57.0 °F - 17.1 °F 21% 30.25 in 10.0 mi North 16.1 mph 20.7 mph N/A   Partly Cloudy
2:53 PM 57.9 °F - 19.0 °F 22% 30.24 in 10.0 mi NNW 12.7 mph 21.9 mph N/A   Partly Cloudy
3:53 PM 57.0 °F - 19.9 °F 24% 30.24 in 10.0 mi North 10.4 mph - N/A   Partly Cloudy
4:53 PM 55.9 °F - 24.1 °F 29% 30.25 in 10.0 mi North 12.7 mph - N/A   Partly Cloudy
5:53 PM 53.1 °F - 25.0 °F 34% 30.27 in 10.0 mi NNE 10.4 mph - N/A   Partly Cloudy
6:53 PM 51.1 °F - 28.9 °F 43% 30.28 in 10.0 mi North 8.1 mph - N/A   Partly Cloudy
7:53 PM 48.9 °F - 32.0 °F 52% 30.30 in 10.0 mi NNW 8.1 mph - N/A   Partly Cloudy
8:53 PM 46.9 °F - 34.0 °F 61% 30.30 in 10.0 mi NW 6.9 mph - N/A   Partly Cloudy
9:53 PM 48.0 °F - 34.0 °F 58% 30.30 in 10.0 mi NW 9.2 mph - N/A   Partly Cloudy
10:53 PM 46.9 °F - 34.0 °F 61% 30.30 in 10.0 mi NW 9.2 mph - N/A   Partly Cloudy